User: anonymous   Login
Location: Banios
(43.0451°N, 0.2335°E)
Time: 01:49:45
(UTC+00:00)
Language:

A-11 Canister half - Orbit

View from above orbital plane
View from above orbital plane
View from above satellite
View from above satellite

Ground track
Ground track

The orbit data is extracted from the following two-line orbital elements,

1 00053U 60009E   21131.23823660 -.00000101  00000-0 -15806-3 0  9998
2 00053  47.2778 328.1487 0098009 330.5715  28.9580 12.17254773708497
Epoch (UTC): 11 May 2021 05:43:03
Eccentricity: 0.0098009
inclination: 47.2778°
perigee height: 1526 km
apogee height: 1683 km
right ascension of ascending node: 328.1487°
argument of perigee: 330.5715°
revolutions per day: 12.17254773
mean anomaly at epoch: 28.9580°
orbit number at epoch: 70849

The dashed part of the orbit path shows where the satellite is in the earth's shadow,  

DLR